This is the latest recevied weather packets stored in our database for station/object SP6PWT-13. If no packets are shown the sender has not sent any weather packets the latest 10 day(s).
| Time | Temp. | Humidity | Pressure | Rain* | Wind** | Luminosity | Snow |
|---|---|---|---|---|---|---|---|
| 1777110310 | 13.89° C | 58% | 996.4 hPa | 0 mm | - | 604 W/m² | - |
| 1777110010 | 13.33° C | 58% | 996.5 hPa | 0 mm | - | 608 W/m² | - |
| 1777109710 | 12.78° C | 60% | 996.5 hPa | 0 mm | - | 571 W/m² | - |
| 1777109409 | 12.78° C | 61% | 996.3 hPa | 0 mm | - | 592 W/m² | - |
| 1777109109 | 12.78° C | 60% | 996.4 hPa | 0 mm | - | 579 W/m² | - |
| 1777108809 | 12.78° C | 62% | 996.4 hPa | 0 mm | - | 601 W/m² | - |
| 1777108507 | 12.78° C | 65% | 996.4 hPa | 0 mm | - | 596 W/m² | - |
| 1777108207 | 12.22° C | 65% | 996.6 hPa | 0 mm | - | 525 W/m² | - |
| 1777107906 | 12.22° C | 66% | 996.5 hPa | 0 mm | - | 559 W/m² | - |
| 1777107606 | 12.78° C | 65% | 996.5 hPa | 0 mm | - | 503 W/m² | - |
| 1777107305 | 12.22° C | 66% | 996.5 hPa | 0 mm | - | 553 W/m² | - |
| 1777107005 | 12.22° C | 67% | 996.5 hPa | 0 mm | - | 545 W/m² | - |
| 1777106704 | 12.22° C | 66% | 996.4 hPa | 0 mm | - | 510 W/m² | - |
| 1777106404 | 11.67° C | 69% | 996.5 hPa | 0 mm | - | 547 W/m² | - |
| 1777106083 | 12.22° C | 68% | 996.6 hPa | 0 mm | - | 365 W/m² | - |
| 1777105783 | 12.22° C | 67% | 996.4 hPa | 0 mm | - | 496 W/m² | - |
| 1777105483 | 11.67° C | 69% | 996.4 hPa | 0 mm | - | 521 W/m² | - |
| 1777105182 | 11.67° C | 70% | 996.6 hPa | 0 mm | - | 483 W/m² | - |
| 1777104881 | 11.67° C | 70% | 996.7 hPa | 0 mm | - | 468 W/m² | - |
| 1777104580 | 12.22° C | 69% | 996.7 hPa | 0 mm | - | 461 W/m² | - |
| 1777104280 | 11.67° C | 70% | 996.7 hPa | 0 mm | - | 115 W/m² | - |
| 1777103980 | 11.67° C | 70% | 996.7 hPa | 0 mm | - | 113 W/m² | - |
| 1777103680 | 11.67° C | 70% | 996.7 hPa | 0 mm | - | 121 W/m² | - |
| 1777103379 | 11.67° C | 70% | 996.9 hPa | 0 mm | - | 131 W/m² | - |
| 1777103078 | 11.11° C | 71% | 996.9 hPa | 0 mm | - | 136 W/m² | - |
* Rain latest hour (hover to see other rain measurements)
** Current wind speed in m/s (hover to see current wind gust speed)